Location: Allos
(44.2333°N, 6.6333°E)
Time: 02:02:43
(UTC+00:00)

DX 1 - Pass Details

Date: 15 May 2021
Orbit: 618 x 631 km, 98.5° (Epoch: 24 June)

Event Time Altitude Azimuth Distance (km) Brightness Sun altitude
Rises 20:23:39 0° 355° (N) 2,909 ? -13.8°
Reaches altitude 10° 20:26:47 10° 330° (NNW) 1,995 ? -14.1°
Maximum altitude 20:29:00 14° 300° (WNW) 1,744 ? -14.4°
Drops below altitude 10° 20:31:12 10° 269° (W) 1,986 ? -14.7°
Sets 20:34:19 0° 244° (WSW) 2,885 ? -15.1°
